CZ-4 DEB, 26143

Orbit data source: Space-Track

CZ-4 DEB, 26143 is space debris in SSO originally from a launch on Thu, 14 Oct 1999 UTC launched from the Taiyaun Space Center, China (TSC). Debris objects in space refer to the collection of defunct objects orbiting the Earth. Examples of debris include non-operational satellites, rocket bodies, and fragments generated from explosions, collisions, or faulty payload assembly.

Loading next visibility...
Identifier
26143, 1999-057AF
Orbit
SSO
Country
Flag of CNCN / PRC
Related business
Manufacturer
Unknown
Mission
Spacecraft
Bus & Motor
Unknown
Mass
Unknown
Launch date (UTC)
1999-10-14 (26 years ago)
Launch vehicle
Unknown
Launch site
Taiyaun Space Center, China (TSC)
Object type
Payload
Rocket body
Debris
Shape & HBR
Unknown
Radar Cross Section
Small (<0.1 m²)

Expand to show TLE details & history
Last TLE update: 11 hours ago

TLE from 11 hours ago
0 CZ-4 DEB
1 26143U 99057AF  25258.47395865  .00000429  00000-0  37615-3 0  9995
2 26143  98.9618 241.4057 0478284 102.8749  20.3615 13.47275622250728
Epoch: 2025-09-15T11:22Z
TLE epoch observation values (Epoch: 2025-09-15T11:22:30.027Z)
Latitude
53.86922°
Longitude
-91.49056°
Altitude
758.69 km
Speed
7.645 km/s
True Right ascension
04h 55m 15s
True Declination
53° 42' 19"
Sunlit
Object was in daylight at epoch
Visualization orbit readout
Latitude
Unknown
Longitude
Unknown
Altitude
Unknown
Speed
Unknown
Apparent Right ascension
Unknown
Apparent Declination
Unknown
Sunlit
N/A
Visualization observer readout
Local Sidereal Time
14:43:52
Azimuth
Unknown
Elevation
Unknown
Doppler factor
Unknown
Orbital elements
Apogee altitude
1,436.248 km
Perigee altitude
722.868 km
Semi-major axis
7,457.695 km
Eccentricity
0.04783
Inclination
98.9618°
RAAN
241.4057°
Arg. of periapsis
102.8749°
True anomaly
22.381°
Mean anomaly
20.3615°
Eccentric anomaly
21.3596°
Mean motion
3.37005 °/min
Orbital period
106.82 mins
BSTAR
0.00037615
Loading maneuver chart data...
Computing Atmospheric mass density...
Loading historical data...
Loading historical data...
Loading historical data...
Loading historical data...
Loading historical data...
Loading historical data...
Loading historical data...

Documentation

Showing up to 5 results
|